Airfield :
LOGIN :

Register | Disclaimer

   EN    FR    IT 

 










Legend :    VFR   Marginal VFR   IFR   Intensive IFR   Very Intensive IFR
Visi :
Ceiling :
>= 8 km
>= 3000ft
5 to 8 km
1000 to 3000 ft
1500m to 5 km
500 to 1000 ft
800 to 1500m
200 to 500 ft
< 800m
< 200 ft
Symbols :   Thunderstorms  Fog  Heavy snow  Heavy precipitations  Wind > 20 kt
SIGMETs :     Misc.  Thunderstorms  Icing  Turbulence  Mountain Waves  Volcanic Ashes







- Airport Elevation : 909 ft
- IATA code : KSF


EDVK - Kassel Calden

CURRENT METAR :
  • 161220Z 21013KT 9999 BKN017 04/01 Q1008

EXPIRED METARs :
  • 161150Z 21012KT 9999 BKN016 05/02 Q1008
  • 161120Z 23012KT 9999 BKN016 05/02 Q1009
  • 161050Z 22012KT 9999 FEW016 BKN021 OVC027 05/02 Q1010
  • 161020Z 21013KT 9999 OVC025 05/02 Q1010
  • 160950Z 21010KT 9999 OVC027 05/03 Q1010

TAF TAF EDVK
Valid from the 16 at 12:00 until the 16 at 21:00 UTC


161100Z 1612/1621 20010KT 9999 BKN030
No reported NOTAMs for that airfield.



MET'MAP, your aeronautical weather chart ! - Copyright ORBIFLY December 2007 - Disclaimer

ORBIFLY MET'MAP TEAM :

Programming & Development : Alexandra Zaïnal
Concept & Development : Baudouin d'Aumeries
Co-Development & Prog : Marc-Olivier Méhu
Technical & hardware support : Manuel Goepfert

Contact : metmap@orbifly.com




SOURCES & CREDITS :

   NOAA